When you browse on this site, cookies collect data to enhance your experience and personalize the content and advertising you see.
Visit our Privacy Policy to learn more. By continuing to use the site, you agree to this use of cookies and data.
  • In Czech Republic
  • List of Countries
  • For 7 days
  • Water Temperature
  • Weather Map
  • Weather Widgets
  • user-avatar
    Login

    Hourly Weather Sinyavino

    Today, 22 January, Wednesday

    Time Temperature Precipitation Wind Pressure Humidity
    00:00 -1°C° 0 mm 8 mps 738 mmHg 90%
    01:00 -1°C° 0 mm 8 mps 738 mmHg 85%
    02:00 -2°C° 0 mm 6 mps 738 mmHg 83%
    03:00 -2°C° 0 mm 6 mps 738 mmHg 85%
    04:00 -3°C° 0 mm 6 mps 738 mmHg 86%
    05:00 -4°C° 0 mm 6 mps 737 mmHg 87%
    06:00 -4°C° 0 mm 6 mps 737 mmHg 87%
    07:00 -3°C° 0 mm 6 mps 737 mmHg 87%
    08:00 -3°C° 0 mm 6 mps 736 mmHg 87%
    09:00 -3°C° 0 mm 6 mps 736 mmHg 87%
    10:00 -2°C° 0 mm 5 mps 735 mmHg 86%
    11:00 -2°C° 0 mm 5 mps 735 mmHg 86%
    12:00 -2°C° 0 mm 5 mps 734 mmHg 86%
    13:00 -2°C° 0 mm 5 mps 734 mmHg 87%
    14:00 -2°C° 0 mm 4 mps 733 mmHg 87%
    15:00 -2°C° 0.1 mm 5 mps 733 mmHg 90%
    16:00 -2°C° 0.1 mm 5 mps 732 mmHg 93%
    17:00 -3°C° 0.1 mm 6 mps 732 mmHg 97%
    18:00 -3°C° 0.4 mm 6 mps 732 mmHg 93%
    19:00 -4°C° 0.4 mm 6 mps 733 mmHg 90%
    20:00 -4°C° 0.4 mm 6 mps 733 mmHg 86%
    21:00 -5°C° 0 mm 6 mps 733 mmHg 87%
    22:00 -5°C° 0 mm 6 mps 734 mmHg 87%
    23:00 -6°C° 0 mm 6 mps 734 mmHg 87%

    Tomorrow, 23 January, Thursday

    Time Temperature Precipitation Wind Pressure Humidity
    00:00 -6°C° 0 mm 6 mps 735 mmHg 87%
    01:00 -6°C° 0 mm 6 mps 735 mmHg 87%
    02:00 -6°C° 0 mm 6 mps 736 mmHg 88%
    03:00 -6°C° 0 mm 6 mps 736 mmHg 89%
    04:00 -6°C° 0 mm 6 mps 737 mmHg 90%
    05:00 -7°C° 0 mm 7 mps 737 mmHg 91%
    06:00 -8°C° 0 mm 7 mps 737 mmHg 88%
    07:00 -8°C° 0 mm 7 mps 738 mmHg 85%
    08:00 -9°C° 0 mm 7 mps 739 mmHg 83%
    09:00 -9°C° 0 mm 7 mps 739 mmHg 80%
    10:00 -9°C° 0 mm 7 mps 740 mmHg 77%
    11:00 -9°C° 0 mm 7 mps 741 mmHg 74%
    12:00 -9°C° 0.1 mm 7 mps 741 mmHg 74%
    13:00 -9°C° 0.1 mm 7 mps 742 mmHg 75%
    14:00 -9°C° 0.1 mm 7 mps 742 mmHg 75%
    15:00 -9°C° 0 mm 6 mps 743 mmHg 77%
    16:00 -10°C° 0 mm 6 mps 743 mmHg 79%
    17:00 -10°C° 0 mm 5 mps 743 mmHg 80%
    18:00 -10°C° 0 mm 5 mps 743 mmHg 83%
    19:00 -8°C° 0 mm 5 mps 743 mmHg 86%
    20:00 -8°C° 0 mm 5 mps 743 mmHg 89%
    21:00 -8°C° 0.1 mm 5 mps 744 mmHg 88%
    22:00 -8°C° 0.1 mm 5 mps 744 mmHg 86%
    23:00 -8°C° 0.1 mm 4 mps 744 mmHg 85%

    Day after tomorrow, 24 January, Friday

    Time Temperature Precipitation Wind Pressure Humidity
    00:00 -9°C° 0 mm 4 mps 745 mmHg 86%
    01:00 -9°C° 0 mm 3 mps 745 mmHg 87%
    02:00 -10°C° 0 mm 3 mps 746 mmHg 88%
    03:00 -10°C° 0 mm 3 mps 746 mmHg 89%
    04:00 -10°C° 0 mm 3 mps 746 mmHg 89%
    05:00 -10°C° 0 mm 3 mps 745 mmHg 90%
    06:00 -9°C° 0 mm 3 mps 745 mmHg 91%
    07:00 -10°C° 0 mm 4 mps 745 mmHg 91%
    08:00 -9°C° 0 mm 4 mps 745 mmHg 92%
    09:00 -8°C° 0 mm 5 mps 744 mmHg 92%
    10:00 -6°C° 0 mm 6 mps 744 mmHg 93%
    11:00 -5°C° 0 mm 6 mps 743 mmHg 93%
    12:00 -6°C° 0.3 mm 7 mps 742 mmHg 93%
    13:00 -5°C° 0.3 mm 8 mps 742 mmHg 94%
    14:00 -5°C° 0.3 mm 8 mps 741 mmHg 94%
    15:00 -5°C° 0.2 mm 8 mps 740 mmHg 95%
    16:00 -4°C° 0.2 mm 8 mps 740 mmHg 95%
    17:00 -3°C° 0.2 mm 7 mps 739 mmHg 96%
    18:00 -2°C° 0.2 mm 7 mps 739 mmHg 96%
    19:00 -1°C° 0.2 mm 7 mps 739 mmHg 96%
    20:00 -1°C° 0.2 mm 7 mps 739 mmHg 97%
    21:00 -1°C° 0 mm 7 mps 739 mmHg 96%
    22:00 -1°C° 0 mm 7 mps 739 mmHg 96%
    23:00 -1°C° 0 mm 6 mps 739 mmHg 95%

    25 January, Saturday

    Time Temperature Precipitation Wind Pressure Humidity
    00:00 -1°C° 0 mm 6 mps 739 mmHg 96%
    01:00 0°C° 0 mm 5 mps 739 mmHg 96%
    02:00 0°C° 0 mm 5 mps 739 mmHg 97%
    03:00 0°C° 0.1 mm 5 mps 739 mmHg 97%
    04:00 0°C° 0.1 mm 5 mps 738 mmHg 97%
    05:00 0°C° 0.1 mm 5 mps 738 mmHg 98%
    06:00 0°C° 0.1 mm 5 mps 738 mmHg 97%
    07:00 0°C° 0.1 mm 5 mps 738 mmHg 97%
    08:00 0°C° 0.1 mm 5 mps 738 mmHg 97%
    09:00 0°C° 0.1 mm 5 mps 738 mmHg 97%
    10:00 0°C° 0.1 mm 5 mps 738 mmHg 97%
    11:00 0°C° 0.1 mm 5 mps 737 mmHg 98%
    12:00 -1°C° 0.1 mm 6 mps 737 mmHg 97%
    13:00 -1°C° 0.1 mm 6 mps 737 mmHg 97%
    14:00 -1°C° 0.1 mm 6 mps 737 mmHg 97%
    15:00 -1°C° 0.1 mm 7 mps 737 mmHg 94%
    16:00 -1°C° 0.1 mm 7 mps 737 mmHg 92%
    17:00 -1°C° 0.1 mm 7 mps 737 mmHg 89%
    18:00 -1°C° 0 mm 7 mps 737 mmHg 89%
    19:00 -2°C° 0 mm 7 mps 737 mmHg 88%
    20:00 -2°C° 0 mm 8 mps 737 mmHg 87%
    21:00 -2°C° 0 mm 8 mps 737 mmHg 87%
    22:00 -2°C° 0 mm 8 mps 738 mmHg 87%
    23:00 -4°C° 0 mm 8 mps 738 mmHg 87%

    26 January, Sunday

    Time Temperature Precipitation Wind Pressure Humidity
    00:00 -4°C° 0 mm 8 mps 739 mmHg 84%
    01:00 -4°C° 0 mm 7 mps 739 mmHg 80%
    02:00 -4°C° 0 mm 7 mps 740 mmHg 77%
    03:00 -6°C° 0 mm 7 mps 740 mmHg 77%
    04:00 -6°C° 0 mm 7 mps 741 mmHg 77%
    05:00 -5°C° 0 mm 6 mps 741 mmHg 78%
    06:00 -5°C° 0 mm 6 mps 742 mmHg 79%
    07:00 -5°C° 0 mm 6 mps 742 mmHg 81%
    08:00 -5°C° 0 mm 6 mps 743 mmHg 83%
    09:00 -5°C° 0 mm 6 mps 743 mmHg 82%
    10:00 -4°C° 0 mm 6 mps 744 mmHg 81%
    11:00 -4°C° 0 mm 7 mps 744 mmHg 80%
    12:00 -4°C° 0 mm 6 mps 745 mmHg 79%
    13:00 -3°C° 0 mm 6 mps 745 mmHg 78%
    14:00 -2°C° 0 mm 5 mps 746 mmHg 77%
    15:00 -4°C° 0 mm 5 mps 746 mmHg 80%
    16:00 -3°C° 0 mm 4 mps 746 mmHg 82%
    17:00 -4°C° 0 mm 3 mps 747 mmHg 85%
    18:00 -4°C° 0 mm 3 mps 747 mmHg 87%
    19:00 -3°C° 0 mm 2 mps 748 mmHg 89%
    20:00 -4°C° 0 mm 2 mps 749 mmHg 91%
    21:00 -4°C° 0 mm 2 mps 749 mmHg 92%
    22:00 -2°C° 0 mm 1 mps 749 mmHg 92%
    23:00 -2°C° 0 mm 1 mps 750 mmHg 92%

    27 January, Monday

    Time Temperature Precipitation Wind Pressure Humidity
    00:00 -2°C° 0 mm 1 mps 750 mmHg 92%
    01:00 -2°C° 0 mm 1 mps 750 mmHg 91%
    02:00 -2°C° 0 mm 1 mps 750 mmHg 91%
    03:00 -2°C° 0 mm 1 mps 750 mmHg 91%
    04:00 -4°C° 0 mm 2 mps 750 mmHg 92%
    05:00 -5°C° 0 mm 3 mps 750 mmHg 92%
    06:00 -5°C° 0 mm 3 mps 750 mmHg 93%
    07:00 -4°C° 0 mm 3 mps 751 mmHg 93%
    08:00 -4°C° 0 mm 4 mps 751 mmHg 94%
    09:00 -4°C° 0 mm 4 mps 751 mmHg 94%
    10:00 -3°C° 0 mm 4 mps 751 mmHg 93%
    11:00 -3°C° 0 mm 4 mps 751 mmHg 93%
    12:00 -2°C° 0 mm 4 mps 750 mmHg 93%
    13:00 -2°C° 0 mm 4 mps 750 mmHg 93%
    14:00 -2°C° 0 mm 5 mps 749 mmHg 92%
    15:00 -2°C° 0 mm 5 mps 749 mmHg 92%
    16:00 -2°C° 0 mm 5 mps 749 mmHg 92%
    17:00 -4°C° 0 mm 5 mps 748 mmHg 93%
    18:00 -2°C° 0.1 mm 5 mps 748 mmHg 94%
    19:00 -2°C° 0.1 mm 5 mps 748 mmHg 95%
    20:00 -3°C° 0.1 mm 6 mps 747 mmHg 95%
    21:00 -3°C° 0.1 mm 6 mps 747 mmHg 96%
    22:00 -3°C° 0.1 mm 6 mps 746 mmHg 96%
    23:00 -3°C° 0.1 mm 6 mps 746 mmHg 96%
    Show more